TimePDT,TemperatureF,Dew PointF,Humidity,Sea Level PressureIn,VisibilityMPH,Wind Direction,Wind SpeedMPH,Gust SpeedMPH,PrecipitationIn,Events,Conditions,WindDirDegrees,DateUTC
12:56 AM,43.0,25.2,49,30.14,10.0,East,3.5,-,N/A,,Clear,100,2013-04-18 07:56:00
1:56 AM,43.9,29.1,56,30.14,10.0,West,3.5,-,N/A,,Clear,260,2013-04-18 08:56:00
2:56 AM,41.9,24.1,49,30.14,10.0,ESE,5.8,-,N/A,,Clear,120,2013-04-18 09:56:00
3:56 AM,56.8,13.1,18,30.14,10.0,East,8.1,-,N/A,,Clear,100,2013-04-18 10:56:00
4:56 AM,59.9,12.0,15,30.15,10.0,ENE,12.7,-,N/A,,Clear,70,2013-04-18 11:56:00
5:56 AM,59.0,11.1,15,30.17,10.0,ENE,10.4,16.1,N/A,,Clear,60,2013-04-18 12:56:00
6:56 AM,59.9,11.1,15,30.20,10.0,ENE,11.5,-,N/A,,Clear,70,2013-04-18 13:56:00
7:56 AM,63.9,10.0,12,30.22,10.0,East,10.4,17.3,N/A,,Clear,90,2013-04-18 14:56:00
8:56 AM,66.9,10.0,11,30.21,10.0,ENE,13.8,20.7,N/A,,Clear,70,2013-04-18 15:56:00
9:56 AM,70.0,10.0,10,30.21,10.0,ENE,13.8,25.3,N/A,,Clear,60,2013-04-18 16:56:00
10:56 AM,72.9,9.1,9,30.21,10.0,NE,19.6,26.5,N/A,,Clear,50,2013-04-18 17:56:00
11:56 AM,74.8,8.1,8,30.19,10.0,ENE,16.1,-,N/A,,Clear,70,2013-04-18 18:56:00
12:56 PM,77.9,8.1,7,30.17,10.0,ENE,20.7,-,N/A,,Clear,60,2013-04-18 19:56:00
1:56 PM,79.0,7.2,6,30.15,10.0,ENE,11.5,25.3,N/A,,Clear,60,2013-04-18 20:56:00
2:56 PM,79.0,8.1,7,30.13,10.0,North,8.1,16.1,N/A,,Clear,350,2013-04-18 21:56:00
3:56 PM,81.0,9.1,7,30.10,10.0,North,4.6,-,N/A,,Clear,360,2013-04-18 22:56:00
4:56 PM,79.9,11.1,7,30.09,10.0,North,6.9,-,N/A,,Clear,350,2013-04-18 23:56:00
5:56 PM,77.0,20.1,12,30.09,10.0,WSW,12.7,17.3,N/A,,Clear,250,2013-04-19 00:56:00
6:56 PM,70.0,22.1,16,30.12,10.0,West,10.4,-,N/A,,Clear,270,2013-04-19 01:56:00
7:56 PM,65.8,20.1,17,30.13,10.0,NW,6.9,-,N/A,,Clear,320,2013-04-19 02:56:00
8:56 PM,57.9,24.1,27,30.15,10.0,North,4.6,-,N/A,,Clear,350,2013-04-19 03:56:00
9:56 PM,52.0,23.0,32,30.15,10.0,NNE,3.5,-,N/A,,Clear,20,2013-04-19 04:56:00
10:56 PM,50.0,24.1,36,30.15,10.0,Calm,Calm,-,N/A,,Clear,0,2013-04-19 05:56:00
11:56 PM,43.0,25.2,49,30.15,10.0,ESE,3.5,-,N/A,,Clear,110,2013-04-19 06:56:00